{"data":{"norad_id":64947,"epoch":"2026-05-25T02:29:17.509632Z","epoch_age_seconds":63118,"freshness":"FRESH","line1":"1 64947U 25158R   26145.10367488  .00004372  00000+0  30678-3 0  9998","line2":"2 64947  97.4518   9.0268 0001561 122.3599 237.7779 15.05661822 46856","mean_motion":15.05661822,"eccentricity":0.0001561,"inclination_deg":97.4518,"raan_deg":9.0268,"arg_perigee_deg":122.3599,"mean_anomaly_deg":237.7779,"bstar":0.00030678,"rev_number":4685,"period_min":95.639005981251,"perigee_km":548.39349124717,"apogee_km":550.55629167969,"semimajor_km":6927.6118914634,"source":"CELESTRAK","updated_at":"2026-05-25T13:38:20.633542Z"}}